Monticello, KY

10:01 PM EDT on July 25, 2017 (GMT -0400)
Wayne County

Weather History for KEKQ - October, 2013

Change the Weather History Date:

Sunday, October 27, 2013

  Actual Average Record
Temperature  
Mean Temperature 48 °F -  
Max Temperature 63 °F 69 °F 83 °F (1963)
Min Temperature 32 °F 41 °F 22 °F (1961)
Degree Days  
Heating Degree Days 18    
Moisture  
Dew Point 44 °F    
Average Humidity 81    
Maximum Humidity 100    
Minimum Humidity 58    
Precipitation  
Precipitation 0.00 in - - ()
Sea Level Pressure  
Sea Level Pressure 30.13 in    
Wind  
Wind Speed 2 mph (SW)    
Max Wind Speed 10 mph    
Max Gust Speed -    
Visibility 10 miles    
Events      
Averages and records for this station are not official NWS values.
T = Trace of Precipitation, MM = Missing Value Source: NWS Daily Summary

Daily Weather History Graph

Daily Weather History Graph

Search for Another Location

Airport or City:

Trip Planner

Search our weather history database for the weather conditions in past years. The results will help you decide how hot, cold, wet, or windy it might be!

Date:

Astronomy

Oct. 27, 2013 Rise Set
Actual Time 6:58 AM CDT 5:47 PM CDT
Civil Twilight 6:31 AM CDT 6:14 PM CDT
Nautical Twilight 6:01 AM CDT 6:44 PM CDT
Astronomical Twilight 5:31 AM CDT 7:14 PM CDT
Moon 12:05 AM CDT (10/27) 1:46 PM CDT (10/27)
Length of Visible Light 11h 42m
Length of Day
10h 48m
Last Quarter, 43% of the Moon is Illuminated
Oct 27
Last Quarter
Nov 3
New
Nov 9
First Quarter
Nov 17
Full
Nov 25
Last Quarter

Hourly Weather History & Observations

Time (CDT) Temp. Dew Point Humidity Pressure Visibility Wind Dir Wind Speed Gust Speed Precip Events Conditions
12:56 AM 37.9 °F 34.9 °F 89% 30.14 in 10.0 mi Calm Calm - N/A   Clear
1:56 AM 36.0 °F 34.0 °F 93% 30.14 in 10.0 mi Calm Calm - N/A   Clear
2:56 AM 36.0 °F 34.0 °F 93% 30.14 in 10.0 mi Calm Calm - N/A   Partly Cloudy
3:56 AM 32.9 °F 32.9 °F 100% 30.13 in 10.0 mi Calm Calm - N/A   Clear
4:56 AM 34.9 °F 34.0 °F 97% 30.13 in 10.0 mi Calm Calm - N/A   Overcast
5:56 AM 38.8 °F 37.9 °F 97% 30.14 in 10.0 mi Calm Calm - N/A   Overcast
6:56 AM 36.0 °F 36.0 °F 100% 30.15 in 10.0 mi Calm Calm - N/A   Mostly Cloudy
7:56 AM 41.9 °F 39.9 °F 93% 30.15 in 10.0 mi Calm Calm - N/A   Overcast
8:56 AM 46.9 °F 41.9 °F 83% 30.16 in 10.0 mi Calm Calm - N/A   Scattered Clouds
9:56 AM 54.9 °F 43.9 °F 66% 30.15 in 10.0 mi South 5.8 mph - N/A   Mostly Cloudy
10:56 AM 59.0 °F 45.9 °F 62% 30.15 in 10.0 mi SSW 8.1 mph - N/A   Mostly Cloudy
11:56 AM 61.9 °F 46.9 °F 58% 30.15 in 10.0 mi SSW 6.9 mph - N/A   Mostly Cloudy
12:56 PM 63.0 °F 47.8 °F 58% 30.13 in 10.0 mi SW 10.4 mph - N/A   Mostly Cloudy
1:56 PM 63.0 °F 47.8 °F 58% 30.12 in 10.0 mi WSW 8.1 mph - N/A   Mostly Cloudy
2:56 PM 63.0 °F 47.8 °F 58% 30.11 in 10.0 mi SW 8.1 mph - N/A   Scattered Clouds
3:56 PM 61.9 °F 48.9 °F 62% 30.11 in 10.0 mi SW 3.5 mph - N/A   Mostly Cloudy
4:56 PM 61.9 °F 48.9 °F 62% 30.10 in 10.0 mi WSW 6.9 mph - N/A   Clear
5:56 PM 57.9 °F 48.9 °F 72% 30.11 in 10.0 mi Calm Calm - N/A   Overcast
6:56 PM 54.0 °F 48.9 °F 83% 30.12 in 10.0 mi Calm Calm - N/A   Overcast
7:56 PM 52.9 °F 48.9 °F 86% 30.14 in 10.0 mi Calm Calm - N/A   Overcast
8:56 PM 54.0 °F 50.0 °F 86% 30.14 in 10.0 mi Calm Calm - N/A   Overcast
9:56 PM 54.9 °F 50.0 °F 84% 30.14 in 10.0 mi Calm Calm - N/A   Overcast
10:41 PM 53.6 °F 50.0 °F 88% 30.13 in 10.0 mi Calm Calm - N/A   Mostly Cloudy
10:48 PM 53.6 °F 50.0 °F 88% 30.13 in 10.0 mi Calm Calm - N/A   Mostly Cloudy
10:56 PM 52.0 °F 50.0 °F 93% 30.14 in 10.0 mi Calm Calm - N/A   Partly Cloudy
11:56 PM 50.0 °F 47.8 °F 92% 30.15 in 9.0 mi Calm Calm - N/A   Overcast